Starlink 30084

operational
NORAD ID: 56825 Int'l Des: 2023-079 Owner: SPXS Country: US Constellation: starlink
LEOCIRCULAR

Über Starlink 30084

Beschreibung wird geladen...

Live-Position

3D-Globus wird geladen...

Nächste Überflüge

Höhenverlauf

Altitude vs Time

uPlot chart will show altitude changes over time

Zweizeiliger Elementsatz

1 56825U 23079C 25260.24831554 -.00000036 00000-0 12424-4 0 9991
2 56825 43.0049 329.8614 0002198 282.3837 77.6759 15.02531025126794
Epoch: 17. Sept. 2025 • Age: 24 hours

Aktueller Status

Höhe 558.0 km
Geschwindigkeit 7.59 km/s
Subsatellitenpunkt 8.11°N, 113.41°W
Startdatum 4. Juni 2023
Alter 2.2 years
Typ internet

Technische Details

Klassifizierung Payload
Masse 730.00 kg
Trockenmasse 700.00 kg
Gesamtmasse 730.00 kg
Länge 0.30 m
Durchmesser 4.10 m
Spannweite 29.00 m
Form Box + pan
Hersteller SPXS
Bus-Typ Starlink V2M
Phasenstatus In Orbit
Besitzer/Staat SPXS/US

Große Konstellationen

Loading constellations...